Weather in Pribrezhnoye

Russia / Ulyanovsk Oblast     54°32′05″N   48°56′57″E
temp.,
°C
wind,
m/s
gust,
m/s
humid.,
%
clouds,
%
prec.,
mm/h
press.,
hPa
HPBL,
m
22 april, thu
thu2201:00+3s81591100 0.1 1021573
04:00+4s61294100 0.1 1023368
07:00+4s61194100 0.1 1023333
10:00+7s688368 0.1 1024477
13:00+9s687593 0.0 1023678
16:00+12s686412 0.0 1023921
19:00+11sse51071100 0.1 1022390
22:00+7sse7147428 0.5 1024337
23 april, fri
fri2301:00+6sse5108284 0.0 1024213
04:00+6sse588644 0.0 1025180
07:00+5sse479015 0.0 1026194
10:00+10s45725 0.0 1025481
13:00+13sse445998 0.0 1024954
16:00+14se3452100 0.0 10221506
19:00+12ese4664100 0.1 1022220
22:00+9e3775100 0.1 1020126
24 april, sat
sat2401:00+8e3678100 0.0 1018115
04:00+8ese4878100 0.0 1016241
07:00+7se4691100 0.4 1015386
10:00+7ese3588100 1.3 1014456
13:00+7sse2384100 0.6 1012511
16:00+8s3476100 0.8 1011829
19:00+8sse468381 0.1 1010347
22:00+7se61389100 0.1 1008320
25 april, sun
sun2501:00+6wsw4990100 2.8 1007538
04:00+5wsw51082100 2.9 1008673
07:00+5ssw488291 0.0 1009361
10:00+7sw6682100 0.4 1009887
13:00+6wsw4773100 3.3 1011756
16:00+9wsw685392 3.8 10121561
19:00+7wsw7117296 2.1 1014485
22:00+4sw511805 2.3 1016262
26 april, mon
mon2601:00+3sw410825 0.0 1018200
04:00+2ssw410835 0.0 1018174
07:00+3sw49792 0.0 1019263
10:00+8sw58585 0.0 1018907
13:00+11sw674584 0.0 10181756
16:00+11ssw4641100 0.0 10161854
19:00+9sse5955100 0.0 1015315
22:00+6sse4759100 0.0 1014112